Richlands, VA

12:12 AM EDT on September 23, 2017 (GMT -0400)
Tazewell County

Weather History for KJFZ - July, 2013

Change the Weather History Date:

Wednesday, July 3, 2013

  Actual Average (KBLF) Record (KBLF)
Temperature  
Mean Temperature 66 °F -  
Max Temperature 70 °F 77 °F 89 °F (2011)
Min Temperature 61 °F 62 °F 55 °F (1995)
Cooling Degree Days 1    
Growing Degree Days 16 (Base 50)    
Moisture  
Dew Point 64 °F    
Average Humidity 92    
Maximum Humidity 100    
Minimum Humidity 75    
Precipitation  
Precipitation 1.80 in - - ()
Sea Level Pressure  
Sea Level Pressure 30.24 in    
Wind  
Wind Speed 4 mph (SSE)    
Max Wind Speed 10 mph    
Max Gust Speed -    
Visibility 7 miles    
Events Fog , Rain    
Averages and records for this station are not official NWS values.
T = Trace of Precipitation, MM = Missing Value Source: NWS Daily Summary

Daily Weather History Graph

Daily Weather History Graph

Search for Another Location

Airport or City:

Trip Planner

Search our weather history database for the weather conditions in past years. The results will help you decide how hot, cold, wet, or windy it might be!

Date:

Astronomy

Jul. 03, 2013 Rise Set
Actual Time 6:12 AM EDT 8:50 PM EDT
Civil Twilight 5:41 AM EDT 9:21 PM EDT
Nautical Twilight 5:03 AM EDT 9:59 PM EDT
Astronomical Twilight 4:20 AM EDT 10:42 PM EDT
Moon 2:46 AM EDT (7/3) 5:02 PM EDT (7/3)
Length of Visible Light 15h 39m
Length of Day
14h 38m
Waning Crescent, 18% of the Moon is Illuminated
Jul 3
Waning Crescent
Jul 8
New
Jul 15
First Quarter
Jul 22
Full
Jul 29
Last Quarter

Hourly Weather History & Observations

Time (EDT) Temp. Dew Point Humidity Pressure Visibility Wind Dir Wind Speed Gust Speed Precip Events Conditions
12:15 AM 69.3 °F 62.8 °F 80% 30.19 in 10.0 mi Calm Calm - N/A   Overcast
12:35 AM 70.2 °F 62.1 °F 75% 30.19 in 10.0 mi South 4.6 mph - N/A   Overcast
12:55 AM 69.3 °F 62.1 °F 78% 30.19 in 10.0 mi South 5.8 mph - N/A   Mostly Cloudy
1:15 AM 68.0 °F 62.2 °F 82% 30.19 in 10.0 mi SE 6.9 mph - N/A   Clear
1:35 AM 67.1 °F 62.2 °F 84% 30.19 in 10.0 mi SE 5.8 mph - N/A   Clear
1:55 AM 67.1 °F 62.4 °F 85% 30.18 in 10.0 mi SSE 6.9 mph - N/A   Clear
2:15 AM 67.1 °F 62.6 °F 85% 30.19 in 10.0 mi SSE 8.1 mph - N/A   Clear
2:35 AM 67.1 °F 62.6 °F 85% 30.19 in 10.0 mi SE 5.8 mph - N/A   Clear
2:55 AM 67.6 °F 62.6 °F 84% 30.18 in 10.0 mi SE 4.6 mph - N/A   Scattered Clouds
3:15 AM 67.1 °F 62.6 °F 85% 30.18 in 10.0 mi SSE 4.6 mph - N/A   Clear
3:35 AM 67.5 °F 62.2 °F 83% 30.18 in 10.0 mi SSE 5.8 mph - N/A   Clear
3:55 AM 69.3 °F 61.5 °F 76% 30.18 in 10.0 mi South 6.9 mph - N/A   Clear
4:15 AM 68.2 °F 61.7 °F 80% 30.17 in 10.0 mi SSE 10.4 mph - N/A   Scattered Clouds
4:35 AM 67.8 °F 62.1 °F 82% 30.18 in 10.0 mi North 3.5 mph - N/A   Scattered Clouds
4:55 AM 66.9 °F 62.2 °F 85% 30.19 in 10.0 mi Calm Calm - N/A   Scattered Clouds
5:15 AM 67.5 °F 62.1 °F 83% 30.19 in 10.0 mi Calm Calm - N/A   Clear
5:35 AM 67.5 °F 62.1 °F 83% 30.19 in 10.0 mi Calm Calm - N/A   Scattered Clouds
5:55 AM 68.0 °F 61.9 °F 81% 30.20 in 10.0 mi Calm Calm - N/A   Mostly Cloudy
6:15 AM 67.3 °F 61.9 °F 83% 30.20 in 10.0 mi SE 3.5 mph - N/A   Overcast
6:35 AM 68.4 °F 61.5 °F 79% 30.20 in 10.0 mi SE 3.5 mph - N/A   Scattered Clouds
6:55 AM 67.3 °F 61.7 °F 82% 30.21 in 10.0 mi SSE 4.6 mph - N/A   Scattered Clouds
7:15 AM 68.0 °F 61.3 °F 79% 30.22 in 10.0 mi SSE 3.5 mph - N/A   Mostly Cloudy
7:35 AM 67.1 °F 62.1 °F 84% 30.23 in 10.0 mi SSE 4.6 mph - N/A   Overcast
7:55 AM 65.8 °F 63.1 °F 91% 30.24 in 10.0 mi SE 6.9 mph - 0.01 in Rain Light Rain
8:15 AM 64.9 °F 63.5 °F 95% 30.25 in 7.0 mi ESE 5.8 mph - 0.02 in Rain Light Rain
8:35 AM 64.8 °F 63.5 °F 96% 30.25 in 7.0 mi ESE 5.8 mph - 0.04 in Rain Light Rain
8:55 AM 65.5 °F 63.9 °F 94% 30.25 in 10.0 mi SE 3.5 mph - 0.04 in   Overcast
9:15 AM 65.7 °F 63.7 °F 93% 30.26 in 10.0 mi ESE 4.6 mph - N/A   Overcast
9:35 AM 66.0 °F 64.4 °F 94% 30.26 in 10.0 mi SE 4.6 mph - N/A Rain Light Rain
9:55 AM 65.7 °F 63.9 °F 94% 30.26 in 10.0 mi SE 3.5 mph - N/A Rain Light Rain
10:15 AM 66.2 °F 63.9 °F 92% 30.26 in 10.0 mi SE 4.6 mph - N/A   Mostly Cloudy
10:35 AM 67.6 °F 64.2 °F 89% 30.27 in 10.0 mi Calm Calm - N/A   Mostly Cloudy
10:55 AM 67.3 °F 64.9 °F 92% 30.27 in 10.0 mi SE 6.9 mph - N/A Rain Rain
11:15 AM 66.4 °F 64.8 °F 95% 30.27 in 10.0 mi SE 8.1 mph - N/A Rain Light Rain
11:35 AM 66.6 °F 65.3 °F 96% 30.27 in 10.0 mi ESE 3.5 mph - 0.01 in Rain Rain
11:55 AM 66.9 °F 65.3 °F 95% 30.28 in 10.0 mi Calm Calm - 0.01 in Rain Rain
12:15 PM 66.7 °F 65.5 °F 96% 30.28 in 7.0 mi SSE 4.6 mph - 0.02 in Rain Rain
12:35 PM 66.9 °F 65.7 °F 96% 30.28 in 10.0 mi Calm Calm - 0.04 in Rain Light Rain
12:55 PM 66.9 °F 66.2 °F 98% 30.28 in 10.0 mi SE 3.5 mph - 0.04 in Rain Light Rain
1:15 PM 67.1 °F 66.4 °F 98% 30.28 in 7.0 mi SE 3.5 mph - 0.01 in Rain Light Rain
1:35 PM 67.3 °F 66.4 °F 97% 30.29 in 5.0 mi SSE 3.5 mph - 0.04 in Rain Rain
1:55 PM 68.0 °F 66.9 °F 96% 30.29 in 2.5 mi Calm Calm - 0.09 in Rain Rain
2:15 PM 68.2 °F 67.1 °F 96% 30.28 in 10.0 mi Calm Calm - 0.02 in Rain Light Rain
2:35 PM 68.0 °F 67.6 °F 99% 30.28 in 1.5 mi West 3.5 mph - 0.02 in Rain Rain
2:55 PM 68.4 °F 67.3 °F 96% 30.28 in 10.0 mi Calm Calm - 0.03 in Rain Light Rain
3:15 PM 68.4 °F 67.8 °F 98% 30.27 in 4.0 mi ENE 4.6 mph - 0.04 in Rain Heavy Rain
3:35 PM 68.9 °F 67.1 °F 94% 30.26 in 7.0 mi Calm Calm - 0.06 in Rain Light Rain
3:55 PM 69.6 °F 67.8 °F 94% 30.25 in 10.0 mi ESE 5.8 mph - 0.06 in   Overcast
4:15 PM 68.2 °F 67.1 °F 96% 30.26 in 7.0 mi SE 9.2 mph - 0.01 in Rain Rain
4:35 PM 67.3 °F 66.7 °F 98% 30.26 in 2.5 mi SE 8.1 mph - 0.11 in Rain Heavy Rain
4:55 PM 67.1 °F 66.7 °F 99% 30.26 in 2.5 mi ESE 5.8 mph - 0.24 in Rain Rain
5:15 PM 66.6 °F 64.9 °F 95% 30.26 in 2.5 mi SSE 5.8 mph - 0.11 in Rain Heavy Rain
5:35 PM 65.7 °F 64.6 °F 96% 30.26 in 1.8 mi Calm Calm - 0.43 in Rain Heavy Rain
5:55 PM 65.8 °F 64.9 °F 97% 30.26 in 2.0 mi SW 6.9 mph - 0.59 in Rain Rain
6:15 PM 65.7 °F 65.3 °F 99% 30.26 in 2.5 mi Calm Calm - 0.10 in Rain Heavy Rain
6:35 PM 65.5 °F 65.3 °F 99% 30.26 in 3.0 mi SE 5.8 mph - 0.15 in Rain Rain
6:55 PM 65.3 °F 65.3 °F 100% 30.26 in 2.5 mi South 4.6 mph - 0.29 in Rain Rain
7:15 PM 65.3 °F 65.3 °F 100% 30.26 in 1.5 mi SE 3.5 mph - 0.08 in Rain Rain
7:35 PM 64.9 °F 64.8 °F 99% 30.26 in 5.0 mi SSW 3.5 mph - 0.12 in Rain Light Rain
7:55 PM 64.9 °F 64.6 °F 99% 30.28 in 10.0 mi South 4.6 mph - 0.12 in Rain Light Rain
8:15 PM 64.9 °F 64.9 °F 100% 30.28 in 1.5 mi South 4.6 mph - 0.04 in Rain Heavy Rain
8:35 PM 64.4 °F 64.2 °F 99% 30.28 in 1.8 mi Calm Calm - 0.16 in Rain Rain
8:55 PM 64.6 °F 64.4 °F 99% 30.28 in 4.0 mi WSW 3.5 mph - 0.22 in Rain Rain
9:15 PM 63.9 °F 63.0 °F 97% 30.28 in 4.0 mi SSW 3.5 mph - 0.05 in Rain Light Rain
9:35 PM 63.7 °F 63.5 °F 99% 30.28 in 10.0 mi Calm Calm - 0.06 in Rain Light Rain
9:55 PM 63.5 °F 63.3 °F 99% 30.28 in 1.5 mi Calm Calm - 0.06 in   Overcast
10:15 PM 63.0 °F 63.0 °F 100% 30.28 in 1.2 mi Calm Calm - N/A Rain Light Rain
10:35 PM 62.8 °F 62.8 °F 100% 30.28 in 0.8 mi SE 3.5 mph - N/A   Overcast
10:55 PM 62.6 °F 62.6 °F 100% 30.26 in 0.2 mi SSE 3.5 mph - N/A Fog Fog
11:15 PM 62.4 °F 62.4 °F 100% 30.27 in 10.0 mi South 3.5 mph - N/A   Scattered Clouds
11:35 PM 62.1 °F 61.9 °F 99% 30.26 in 7.0 mi Calm Calm - N/A   Scattered Clouds
11:55 PM 61.9 °F 61.9 °F 100% 30.26 in 2.0 mi SE 3.5 mph - N/A   Scattered Clouds